Location: Mercogliano
(40.9167°N, 14.7333°E)
Time: 03:08:53
(UTC+00:00)

X-37B - Pass Details

Date: 04 December 2020
Orbit: 383 x 391 km, 45.1° (Epoch: 22 January)

Event Time Altitude Azimuth Distance (km) Brightness Sun altitude
Rises 17:39:33 0° 290° (WNW) 2,262 5.4 -23.2°
Reaches altitude 10° 17:41:40 10° 296° (WNW) 1,409 4.1 -23.6°
Enters shadow 17:43:07 23° 309° (NW) 870 2.7 -23.9°
